Regional Weather Roundup
Issued by NWS Sioux Falls, SD

Home | Current Version | Previous Version | Text Only | Print | Product List | Glossary On
Versions: 1 2 3 4 5 6 7 8 9 10 11 12 13 14 15 16 17 18 19 20 21 22 23 24 25 26 27 28 29 30 31 32 33 34 35 36 37 38 39 40 41 42 43 44 45 46 47 48 49 50
906
ASUS43 KFSD 101710
RWRFSD

WEATHER ROUNDUP FOR SE SOUTH DAKOTA/SW MINNESOTA/NW IOWA
NATIONAL WEATHER SERVICE SIOUX FALLS SD
1100 AM CST SUN DEC 10 2017

NOTE: "FAIR" INDICATES FEW OR NO CLOUDS BELOW 12,000 FEET WITH NO
SIGNIFICANT WEATHER AND OR OBSTRUCTIONS TO VISIBILITY.


SDZ038>040-050-052>070-101800-
SOUTHEAST SOUTH DAKOTA

CITY           SKY/WX    TMP DP  RH WIND       PRES   REMARKS
CHAMBERLAIN    SUNNY     47  23  38 NW9       30.12S
HURON          SUNNY     38  27  64 NW13      30.08R
MADISON        FAIR      34  32  93 NW15G21   30.06R WCI  24
MITCHELL       SUNNY     40  29  64 NW8       30.11R
SIOUX FALLS    MOSUNNY   37  28  70 NW13      30.07R
WINNER         FAIR      51  17  26 NW18      30.15R
YANKTON        SUNNY     44  26  49 W15G24    30.11R
$$

MNZ071-072-080-081-089-090-097-098-101800-
SOUTHWEST MINNESOTA

CITY           SKY/WX    TMP DP  RH WIND       PRES   REMARKS
FAIRMONT       SUNNY     34  23  64 NW18      30.01R WCI  23
JACKSON        SUNNY     34  27  75 MISG      30.02R
LUVERNE        SUNNY     34  27  75 NW10      30.06R WCI  26
MARSHALL       SUNNY     34  24  67 N18       30.04R WCI  23
MONTEVIDEO     SUNNY     34  25  69 N13       30.05R WCI  25
PIPESTONE      SUNNY     34  27  75 NW13      30.03R WCI  25
REDWOOD FALLS  SUNNY     32  21  64 NW14      30.03R WCI  22
TRACY          SUNNY     34  27  74 NW13      30.03R WCI  25
WINDOM         SUNNY     34  19  55 NW17G26   30.02R WCI  23
WORTHINGTON    SUNNY     34  25  69 NW17      30.03R WCI  23
$$

IAZ001>003-012>014-020>022-031-032-NEZ013-014-SDZ071-101800-
NORTHWEST IOWA

CITY           SKY/WX    TMP DP  RH WIND       PRES   REMARKS
CHEROKEE       SUNNY     39  28  65 NW10      30.07R
DENISON        SUNNY     43  27  52 NW17      30.08S
ESTHERVILLE    SUNNY     34  26  72 NW18      30.01R WCI  23
LE MARS        SUNNY     39  28  65 W12G18    30.09R
ORANGE CITY    SUNNY     37  30  75 NW16      30.06R
SHELDON        SUNNY     36  28  75 NW15      30.04R
SIOUX CITY     SUNNY     44  27  51 NW20      30.09R
SPENCER        SUNNY     36  26  67 NW13      30.04R
STORM LAKE     SUNNY     37  27  65 NW15      30.04S
$$

ABBREVIATIONS USED IN REMARKS
   TC - TEMPERATURE IN CELSIUS
  WCI - WIND CHILL INDEX
   HX - HEAT INDEX
  VSB - VISIBILITY





USA.gov is the U.S. government's official web portal to all federal, state and local government web resources and services.